Location: Laas
(43.4693°N, 0.3073°E)
Time: 14:16:26
(UTC+00:00)

GRACE-FO 2 - Pass Details

Date: 25 October 2020
Orbit: 481 x 505 km, 89.0° (Epoch: 25 November)

Event Time Altitude Azimuth Distance (km) Brightness Sun altitude
Rises 17:27:06 0° 2° (N) 2,557 8.1 -5.7°
Reaches altitude 10° 17:29:12 10° 3° (N) 1,670 7.1 -6.1°
Maximum altitude 17:32:49 78° 91° (E) 498 4.5 -6.7°
Drops below altitude 10° 17:36:24 10° 178° (S) 1,656 7.4 -7.4°
Sets 17:38:29 0° 179° (S) 2,531 8.3 -7.7°
